This demonstration page uses our WeatherBlox Daily Observations layout. Learn more.

Left ArrowRight Arrow

Hourly Observations for October 19, 2021

Temp ( °F °C ) Dew Point ( °F °C ) Humidity (%) Winds ( mph kmh ) Pressure ( in mb ) Visibility ( mi km ) Precip ( " mm )
12:15 am 00:15 Clear 46 8 43 6 87 87 N N/A 30.13 1020 10 16 N/A
12:35 am 00:35 Clear 45 7 41 5 87 87 NW 6 9 30.13 1020 10 16 N/A
12:55 am 00:55 Clear 45 7 43 6 93 93 NW 3 6 30.13 1020 10 16 N/A
1:15 am 01:15 Clear 45 7 41 5 87 87 NW 6 9 30.13 1020 10 16 N/A
1:35 am 01:35 Clear 45 7 41 5 87 87 NW 6 9 30.13 1020 10 16 N/A
1:55 am 01:55 Clear 48 9 41 5 76 76 N N/A 30.13 1020 10 16 N/A
2:15 am 02:15 Clear 48 9 41 5 76 76 N N/A 30.14 1021 10 16 N/A
2:35 am 02:35 Clear 46 8 41 5 82 82 N N/A 30.14 1021 10 16 N/A
2:55 am 02:55 Clear 45 7 43 6 93 93 N N/A 30.14 1021 10 16 N/A
3:15 am 03:15 Clear 43 6 41 5 93 93 N N/A 30.14 1021 10 16 N/A
3:35 am 03:35 Clear 43 6 41 5 93 93 N N/A 30.14 1021 10 16 N/A
3:55 am 03:55 Clear 43 6 41 5 93 93 N N/A 30.14 1021 10 16 N/A
4:15 am 04:15 Clear 43 6 41 5 93 93 N N/A 30.14 1021 10 16 N/A
4:35 am 04:35 Clear 43 6 41 5 93 93 N N/A 30.14 1021 10 16 N/A
4:55 am 04:55 Clear 43 6 41 5 93 93 N N/A 30.15 1021 10 16 N/A
5:15 am 05:15 Clear 43 6 41 5 93 93 N N/A 30.15 1021 10 16 N/A
5:35 am 05:35 Clear 43 6 41 5 93 93 N N/A 30.16 1021 10 16 N/A
5:55 am 05:55 Clear 43 6 41 5 93 93 N N/A 30.16 1021 10 16 N/A
6:15 am 06:15 Clear 41 5 39 4 93 93 N N/A 30.16 1021 10 16 N/A
6:35 am 06:35 Clear 41 5 41 5 100 100 N N/A 30.17 1022 10 16 N/A
6:55 am 06:55 Clear 41 5 41 5 100 100 N N/A 30.17 1022 10 16 N/A
7:15 am 07:15 Clear 41 5 41 5 100 100 N N/A 30.17 1022 10 16 N/A
7:35 am 07:35 Sunny 41 5 41 5 100 100 N N/A 30.17 1022 10 16 N/A
7:55 am 07:55 Sunny 41 5 41 5 100 100 N N/A 30.18 1022 10 16 N/A
8:15 am 08:15 Sunny 45 7 41 5 87 87 N N/A 30.18 1022 10 16 N/A
8:35 am 08:35 Sunny 46 8 43 6 87 87 N N/A 30.19 1022 10 16 N/A
8:55 am 08:55 Sunny 50 10 45 7 82 82 N N/A 30.20 1023 10 16 N/A
9:15 am 09:15 Sunny 52 11 45 7 77 77 N N/A 30.19 1023 10 16 N/A
9:35 am 09:35 Sunny 55 13 46 8 72 72 SSW 6 9 30.19 1022 10 16 N/A
9:55 am 09:55 Sunny 55 13 46 8 72 72 SSW 3 6 30.19 1022 10 16 N/A
10:15 am 10:15 Sunny 59 15 45 7 59 59 S 3 6 30.19 1022 10 16 N/A
10:35 am 10:35 Sunny 61 16 46 8 59 59 S 5 7 30.20 1023 10 16 N/A
10:55 am 10:55 Sunny 63 17 46 8 56 56 SW 6 9 30.19 1022 10 16 N/A
11:15 am 11:15 Sunny 64 18 48 9 56 56 SW 5 7 30.17 1022 10 16 N/A
11:35 am 11:35 Sunny 64 18 48 9 56 56 W 6 9 30.17 1022 10 16 N/A
11:55 am 11:55 Sunny 66 19 48 9 52 52 W 6 9 30.17 1022 10 16 N/A
12:15 pm 12:15 Sunny 68 20 46 8 46 46 NW 12 19 30.16 1021 10 16 N/A
12:35 pm 12:35 Sunny 70 21 46 8 43 43 WNW 9 15 30.15 1021 10 16 N/A
12:55 pm 12:55 Sunny 70 21 48 9 46 46 WNW 13 20 30.14 1021 10 16 N/A
1:15 pm 13:15 Sunny 70 21 48 9 46 46 WNW 8 13 30.13 1020 10 16 N/A
1:35 pm 13:35 Sunny 72 22 48 9 44 44 NW 13 20 30.12 1020 10 16 N/A
1:55 pm 13:55 Sunny 72 22 48 9 44 44 W 5 7 30.12 1020 10 16 N/A
2:15 pm 14:15 Sunny 72 22 48 9 44 44 W 9 15 30.10 1019 10 16 N/A
2:35 pm 14:35 Sunny 72 22 46 8 41 41 NW 14 22 30.09 1019 10 16 N/A
2:55 pm 14:55 Sunny 72 22 46 8 41 41 W 8 13 30.09 1019 10 16 N/A
3:15 pm 15:15 Sunny 72 22 46 8 41 41 W 9 15 30.08 1019 10 16 N/A
3:35 pm 15:35 Sunny 73 23 46 8 38 38 W 6 9 30.07 1018 10 16 N/A
3:55 pm 15:55 Sunny 73 23 46 8 38 38 W 12 19 30.07 1018 10 16 N/A
4:15 pm 16:15 Sunny 73 23 46 8 38 38 WNW 8 13 30.07 1018 10 16 N/A
4:35 pm 16:35 Sunny 72 22 45 7 38 38 WNW 14 22 30.07 1018 10 16 N/A
4:55 pm 16:55 Sunny 72 22 43 6 36 36 W 9 15 30.07 1018 10 16 N/A
5:15 pm 17:15 Sunny 72 22 45 7 38 38 WNW 12 19 30.07 1018 10 16 N/A
5:35 pm 17:35 Sunny 70 21 45 7 40 40 WNW 6 9 30.07 1018 10 16 N/A
5:55 pm 17:55 Sunny 68 20 46 8 46 46 W 6 9 30.07 1018 10 16 N/A
6:15 pm 18:15 Sunny 68 20 45 7 43 43 W 7 11 30.08 1019 10 16 N/A
6:35 pm 18:35 Clear 64 18 45 7 49 49 W 8 13 30.09 1019 10 16 N/A
6:55 pm 18:55 Clear 63 17 45 7 52 52 WNW 8 13 30.10 1019 10 16 N/A
7:15 pm 19:15 Clear 61 16 45 7 55 55 W 8 13 30.11 1020 10 16 N/A
7:35 pm 19:35 Clear 61 16 46 8 59 59 W 8 13 30.11 1020 10 16 N/A
7:55 pm 19:55 Clear 59 15 45 7 59 59 W 12 19 30.11 1020 10 16 N/A
8:15 pm 20:15 Clear 61 16 45 7 55 55 W 9 15 30.12 1020 10 16 N/A
8:35 pm 20:35 Clear 61 16 45 7 55 55 W 7 11 30.12 1020 10 16 N/A
8:55 pm 20:55 Clear 59 15 45 7 59 59 W 6 9 30.13 1020 10 16 N/A
9:15 pm 21:15 Clear 61 16 45 7 55 55 WNW 5 7 30.13 1020 10 16 N/A
9:35 pm 21:35 Clear 55 13 45 7 67 67 W 9 15 30.13 1020 10 16 N/A
9:55 pm 21:55 Clear 57 14 46 8 67 67 WNW 9 15 30.13 1020 10 16 N/A
10:15 pm 22:15 Clear 59 15 45 7 59 59 W 5 7 30.13 1020 10 16 N/A
10:35 pm 22:35 Clear 59 15 46 8 63 63 SW 6 9 30.13 1020 10 16 N/A
10:55 pm 22:55 Clear 59 15 46 8 63 63 WSW 7 11 30.14 1021 10 16 N/A
11:15 pm 23:15 Clear 59 15 46 8 63 63 W 5 7 30.14 1021 10 16 N/A
11:35 pm 23:35 Clear 57 14 46 8 67 67 WNW 6 9 30.14 1021 10 16 N/A
11:55 pm 23:55 Clear 59 15 46 8 63 63 WSW 3 6 30.14 1021 10 16 N/A

Powered by AerisWeather